Kezdőlap
METAR-TAF:

METAR-TAF

Repülőterek :

Grinnell, Iowa, Amerikai Egyesült Államok

földrajzi szélesség: 41-42-35N, földrajzi hosszúság: 092-44-09W, magasság: 307 m

Jelenlegi meteorológiai megfigyelések

A jelentés 22 perccel ezelõtt készült, 16:55 UTC
Északkeleti szél 9 kt
Hőmérséklet 9°C
Páratartalom 100%
Légköri nyomás 1019 hPa
Látótávolság: 16.1 km
Szórványos felhőzet 600 lábon
Szakadozott felhőzet 1000 lábon
Borult 6000 lábon
enyhe szitálás

METAR: KGGI 181655Z AUTO 04009KT 10SM -DZ SCT006 BKN010 OVC060 09/09 A3010 RMK AO2 T00920090

Idő: 12:17 (17:17 UTC)


TAF: hiányzik

Meteorológiai megfigyelések és előrejelzések több, mint 4000 repülőtéren (METAR és TAF jelentéseket).

A térképen piros és sárga pontok jelzik az elérhető meteorológiai állomásokat.

Mozgassa az egeret a pont fölött, hogy megjelenjen az állomás neve.

Azután kattintson az időjárási megfigyelések és előrejelzések megtekintéséhez.

A térkép megváltoztatása: kattintson a fekete keresztel jelölt zöld gombra ráközelítéshez, a vonallal jelölt zöld gombra távolításhoz, vagy a zöld nyilakra a szomszédos térképek eléréséhez.


METAR-TAF: